Regional Weather Roundup
Issued by NWS

Home | Current Version | Previous Version | Graphics & Text | Print | Product List | Glossary On
Versions: 1 2 3 4 5 6 7 8 9 10 11 12 13 14 15 16 17 18 19 20 21 22 23 24 25 26 27 28 29 30 31 32 33 34 35 36 37 38 39 40 41 42 43 44 45 46 47 48 49 50
000
ASUS43 KFSD 241802
RWRSD

WEATHER ROUNDUP FOR SOUTH DAKOTA
NATIONAL WEATHER SERVICE SIOUX FALLS SD
100 PM CDT SUN MAY 24 2015

NOTE: "FAIR" INDICATES FEW OR NO CLOUDS BELOW 12,000 FEET WITH NO
SIGNIFICANT WEATHER AND/OR OBSTRUCTIONS TO VISIBILITY.


SDZ001>005-009-010-012>017-241900-
NORTHWEST AND NORTH CENTRAL SOUTH DAKOTA

CITY           SKY/WX    TMP DP  RH WIND       PRES   REMARKS
FAITH            N/A     59  51  75 NE16      29.94F
MOBRIDGE       CLOUDY    67  50  54 E16       29.93S
$$

SDZ012>016-024>037-041>051-057-063-072>074-241900-
SOUTHWEST AND SOUTH CENTRAL SOUTH DAKOTA

CITY           SKY/WX    TMP DP  RH WIND       PRES   REMARKS
RAPID CTY ARPT HVY RAIN  54  53  97 E14       29.92S FOG
PIERRE         CLOUDY    63  55  75 E13       29.89F
CUSTER         LGT RAIN  47  44  90 NE9       29.94F
ELLSWORTH AFB  HVY RAIN  53  53 100 E14       29.91  FOG
PHILIP         HVY RAIN  56  55  97 E15       29.89F FOG
PINE RIDGE     CLOUDY    58  53  84 NE7       29.88F
WINNER         CLOUDY    60  57  89 E10       29.88F
$$

SDZ004>011-016>023-039-040-241900-
NORTHEAST SOUTH DAKOTA

CITY           SKY/WX    TMP DP  RH WIND       PRES   REMARKS
ABERDEEN       CLOUDY    66  52  60 E12       29.94F
WATERTOWN      LGT RAIN  59  55  87 E9        29.94F FOG
BROOKINGS      CLOUDY    61  57  88 NE8       29.93S
$$

SDZ017-020-022-023-036>040-048>070-241900-
SOUTHEAST SOUTH DAKOTA

CITY           SKY/WX    TMP DP  RH WIND       PRES   REMARKS
SIOUX FALLS    CLOUDY    61  58  90 E10       29.88F
HURON          CLOUDY    62  59  90 E12       29.90F
CHAMBERLAIN    CLOUDY    59  57  92 E9        29.88F
MITCHELL       LGT RAIN  62  60  93 E9        29.89F
YANKTON        CLOUDY    61  59  94 E12       29.85F
$$

ABBREVIATIONS USED IN REMARKS
   TC - TEMPERATURE IN CELSIUS
  WCI - WIND CHILL INDEX
   HX - HEAT INDEX
  VSB - VISIBILITY



USA.gov is the U.S. government's official web portal to all federal, state and local government web resources and services.